XIWANG-1 (HOPE-1) (36122 NORAD) Tracking and Keplerian Element Data

This shows tracking and keplerian element data for the satellite.

Feedback or suggestion? Click here.




ElementValue
Catalog36122
NameXIWANG-1 (HOPE-1)
Epoch Orbit72743
Epoch Day34.83792084
Epoch Year2025
RAAN353.3696
Inclination100.3315
Eccentricity0.0006956
Argument of Perigee295.6482
Mean Anonmoly64.3912
Mean Motion13.16418361
Decay Rate1.5E-07
L11 36122U 09072B 25034.83792084 .00000015 00000+0 15478-3 0 9990
L22 36122 100.3315 353.3696 0006956 295.6482 64.3912 13.16418361727438



Live tracking and technical data element details for XIWANG-1 (HOPE-1) (NORAD 36122). XIWANG-1 (HOPE-1) can be tracked NOW for your location showing map with azimuth and elevation plus other details from your city location.







IsCatalogInMostPopularTable: catalog: 36122, numindb: 442
Update: records affected: 1



GetName: 36122 XIWANG-1 (HOPE-1)

Hit Count: updated at: Sat, 06 Dec 2025 12:26:02 GMT